sat.trackr.live / text

‹ back to catalog

STARLINK-35778

NORAD 66973 · 2025-288Q

PAYLOAD ACTIVE UNKNOWN

§ Identity

Operator
Country
US
Launch date
2025-12-08
Launch site
AFETR
Launch vehicle
Mass (kg)
RCS (m²)

Purposes: comms

External: N2YO · Heavens-Above · Gunter

§ Orbital elements

Epoch: 2026-09-20T13:21:58.722624Z

Period
94.27 min
Inclination
43.0013°
Eccentricity
0.0000923
Mean motion
15.27586119 rev/d
Perigee alt
482.4 km
Apogee alt
483.7 km
Semi-major
6,861.2 km
B*
3.7604e-4
RAAN
2.6198°
Arg perigee
259.7414°
Mean anomaly
100.3334°
Rev number
4,509

§ Raw data

STARLINK-357781 66973U 25288Q   26263.55692966  .00010102  00000+0  37604-3 0  99992 66973  43.0013   2.6198 0000923 259.7414 100.3334 15.27586119 45093

JSON: /api/v1/satellites/66973 · /tle

For live sub-satellite position, see the globe view (requires WebGL).

§ Visibility from observer

Set your observer location to see the next 7 days of passes ≥ 10°. The values pass through the URL so the page stays shareable.

No JS? Fill the form by hand. The geolocation button needs JavaScript.